默认 日期 大小 文件数 浏览量 最新下载 xml
broadcast磁力链接相关资源由用户搜索指令自动获取,结果来源于网络,本站不存储任何资料,亦不承担任何责任,请于24小时内删除,搜索到3882个磁力,用时4ms。
    {"bxdtvd.png": 8987, "Ministry_of_Broadcas_v.2.7_setup.exe": 662343432}
创建时间: 2020-02-21 00:12:34 大小:631.67 MB 文件数量:2 热度:3 最近下载:2023-12-25 06:13:04
    {"Markus Schulz presents - Global DJ Broadcast (21 November 2013).cue": 3122, "Markus Schulz presents - Global DJ Broadcast (21 November 2013).mp3": 230221179}
创建时间: 2020-02-24 02:57:56 大小:219.56 MB 文件数量:2 热度:4 最近下载:2023-12-25 17:04:03
    {"unarc.exe": 214016, "README.txt": 338, "SiMPLEX.exe": 143872, "SiMPLEX.ini": 232, "Simplex.bin": 176510339, "bassmod.dll": 34308, "simplex.nfo": 7275, "IGG-GAMES.COM.url": 196, "PCGAMESTORRENTS.COM.url": 202}
创建时间: 2020-02-25 02:59:42 大小:168.72 MB 文件数量:9 热度:2 最近下载:2023-12-25 19:44:05
    {"Vox Broadcast Pack": {"(Footage)": {"Assets": {"BG.jpg": 1701119, "Logo.png": 111871}}, "Tutorial.mov": 17012948, "Vox Broadcast Pack.aep": 4135296}, "Vox Broadcast Pack.jpg": 92188, "Vox Broadcast Pack.mp4": 13292032}
创建时间: 2020-02-25 05:21:35 大小:34.66 MB 文件数量:6 热度:3 最近下载:2023-12-25 20:04:01
    ... Nightmare - Survivor.mp3": 5589686, "01 - Broadcast The Nightmare - Unsung Hero.mp3 ... ": 6228092, "02 - Broadcast The Nightmare - Anosognosia.mp3": 8025453 ... , "04 - Broadcast The Nightmare - Clone Ocean.mp3 ...
创建时间: 2020-02-25 23:04:36 大小:62.49 MB 文件数量:10 热度:7 最近下载:2025-04-10 08:29:02
    {"说明.txt": 2638, "simplex.nfo": 7372, "www.3dmgame.com.url": 122, "2020年全部热门单机游戏及汉化下载.url": 147, "3DMGAME-Ministry.of.Broadcast.Build.12022020-SiMPLEX.rar": 181870361}
创建时间: 2020-02-26 20:28:52 大小:173.45 MB 文件数量:5 热度:2 最近下载:2023-12-26 01:54:04
    {"folder.jpg": 199394, "16. Anske - Mistika.mp3": 7639743, "08. Nifra - Powerball.mp3": 7786032, "06. Fonzerelli - In My Dream.mp3": 8880054, "18. Cressida - Top To Bottom.mp3": 9824643, "04. Arkham Knights - Renegade.mp3": 10359632, "03. ...
创建时间: 2020-02-29 00:58:27 大小:202.94 MB 文件数量:43 热度:3 最近下载:2023-12-26 07:34:03
    ... Joel Nassau Colliseum Soundcheck WBAB Broadcast December 27, 1989 AT-172 ... Joel Nassau Colliseum Soundcheck WBAB Broadcast December 27, 1989 AT-172 ...
创建时间: 2020-03-01 11:57:40 大小:423.24 MB 文件数量:52 热度:12 最近下载:2025-04-11 18:29:03
    ... ).mp3": 288155002}, "Global DJ Broadcast (2016-01-14)": {"Global ... ).mp3": 288555198}, "Global DJ Broadcast (2016-01-21)": {"Global ... ).mp3": 289325288}, "Global DJ Broadcast (2016-01-28)": {"Global ... ).mp3": 290516472}, "Global DJ Broadcast (2016-02-04)": {"Global ...
创建时间: 2020-03-01 21:36:36 大小:11.06 GB 文件数量:82 热度:2 最近下载:2023-12-26 11:50:03
    {"Global DJ Broadcast (2013-07-25) - Ibiza Summer Sessions.cue": 3240, "Global DJ Broadcast (2013-07-25) - Ibiza Summer Sessions.mp3": 289372594}
创建时间: 2020-03-02 04:04:59 大小:275.97 MB 文件数量:2 热度:2 最近下载:2023-12-26 12:35:02
    {"Global DJ Broadcast (2014-04-24) - guest M.I.K.E. Push.cue": 2990, "Global DJ Broadcast (2014-04-24) - guest M.I.K.E. Push.mp3": 288223732}
创建时间: 2020-03-03 12:36:14 大小:274.87 MB 文件数量:2 热度:7 最近下载:2025-02-26 21:59:03
    ... , "Brush_stroke_alpha_08.mov": 47212371}}}}}, "Fashion Event Broadcast.aep": 4252525}}
创建时间: 2020-03-05 01:39:53 大小:190.54 MB 文件数量:15 热度:3 最近下载:2023-12-26 19:01:06
    ... , "Brush_stroke_alpha_08.mov": 47212371}}}}}, "Fashion Event Broadcast.aep": 4252525}}
创建时间: 2020-03-05 06:37:25 大小:190.38 MB 文件数量:14 热度:3 最近下载:2023-12-26 19:34:05
    ... Walking.mp3": 17856976, "09. Mental Broadcast - God Particles.mp3": 17473498, " ... 03. Mental Broadcast - Tripping Balls.mp3": 18787982, "08 ... Reality.mp3": 17078545, "06. Mental Broadcast & Technology - Random Protocols.mp3": 17999114 ...
创建时间: 2020-03-05 18:25:13 大小:153.32 MB 文件数量:10 热度:3 最近下载:2023-12-26 20:38:01
    ... Video+mp3 LIVE 3-hr Broadcast.txt": 6274}
创建时间: 2020-03-06 01:31:10 大小:2.27 GB 文件数量:29 热度:5 最近下载:2025-02-09 18:32:01
    {"Markus Schulz presents - Global DJ Broadcast World Tour (4 April 2013)-SBD.cue": 3354, "Markus Schulz presents - Global DJ Broadcast World Tour (4 April 2013)-SBD.mp3": 288487965}
创建时间: 2020-03-06 03:46:30 大小:275.13 MB 文件数量:2 热度:5 最近下载:2024-12-28 03:44:03
    {"CD 1": {"CD 1.ffp": 956, "fingerprint.ffp.txt": 1016, "Unknown Artist - Unknown Title.log": 3829, "PT - Woodstock 98-d1t05-Drowned.flac": 43962110, "PT - Woodstock 98-d1t03-Pete Chatter.flac": 10464390, "PT - Woodstock 98-d1t08-Pete Chatter.flac": ...
创建时间: 2020-03-08 03:14:40 大小:834.77 MB 文件数量:36 热度:4 最近下载:2025-02-04 09:57:01
    ... , NL, 2000 01-25 FM broadcast (speed corrected).jpg": 36068, "The ... , NL, 2000-01-25 FM broadcast (speed corrected).ffp": 987, "The ... , NL, 2000-01-25 FM broadcast (speed corrected).md5": 1096}
创建时间: 2020-03-08 04:53:31 大小:456.02 MB 文件数量:21 热度:5 最近下载:2024-12-09 10:05:03
    {"01.ts": 28828917716, "02.ts": 1828942960}
创建时间: 2020-03-08 05:36:50 大小:28.55 GB 文件数量:2 热度:8 最近下载:2025-01-19 03:53:03
    {"Cover.jpg": 86628, "05 Red Eyes.mp3": 5096958, "08 Rap Attack.mp3": 2354730, "06 Hellaw [Live].mp3": 6864303, "07 Gray Out Side.mp3": 4828006, "09 Durham All Day.mp3": 5425480, "16 Master Cleanse.mp3": 6932014, "01 Something So Cold.mp3": 5939573, "03 ...
创建时间: 2020-03-08 15:03:18 大小:76.59 MB 文件数量:17 热度:7 最近下载:2025-08-06 10:40:04